Location: Jackson Park
(37.2862°N, 79.9123°W)
Time: 20:39:41
(UTC+00:00)

Vanguard 3 - Pass Details

Date: 17 May 2026
Orbit: 507 x 3205 km, 33.4° (Epoch: 31 May)

Event Time Altitude Azimuth Distance (km) Brightness Sun altitude
Rises 20:12:37 0° 262° (W) 6,747 12.5 47.8°
Reaches altitude 10° 20:16:49 10° 261° (W) 5,913 12.5 46.9°
Maximum altitude 20:36:25 78° 180° (S) 3,158 10.9 43.1°
Drops below altitude 10° 20:52:52 10° 97° (E) 5,094 10.8 39.9°
Sets 20:56:11 0° 96° (E) 5,815 11.0 39.2°
